This is the latest recevied weather packets stored in our database for station/object KB1JL-13. If no packets are shown the sender has not sent any weather packets the latest 10 day(s).
| Time | Temp. | Humidity | Pressure | Rain* | Wind** | Luminosity | Snow |
|---|---|---|---|---|---|---|---|
| 1787844221 | 24.44° C | 91% | 1029.8 hPa | 0 mm | - | 283 W/m² | - |
| 1787843919 | 23.89° C | 92% | 1029.8 hPa | 0 mm | - | 357 W/m² | - |
| 1787843615 | 23.89° C | 91% | 1029.8 hPa | 0 mm | - | 269 W/m² | - |
| 1787843312 | 23.33° C | 92% | 1029.8 hPa | 0 mm | - | 239 W/m² | - |
| 1787843007 | 23.33° C | 94% | 1029.8 hPa | 0 mm | - | 200 W/m² | - |
| 1787842706 | 23.33° C | 94% | 1029.8 hPa | 0 mm | - | 154 W/m² | - |
| 1787842401 | 22.78° C | 94% | 1029.8 hPa | 0 mm | - | 117 W/m² | - |
| 1787842096 | 22.78° C | 94% | 1029.8 hPa | 0 mm | - | 83 W/m² | - |
| 1787841791 | 22.78° C | 94% | 1029.8 hPa | 0 mm | - | 80 W/m² | - |
| 1787841487 | 22.78° C | 94% | 1029.8 hPa | 0 mm | - | 86 W/m² | - |
| 1787841185 | 23.33° C | 94% | 1029.8 hPa | 0 mm | - | 95 W/m² | - |
| 1787840881 | 23.33° C | 94% | 1029.8 hPa | 0 mm | - | 92 W/m² | - |
| 1787840576 | 23.33° C | 93% | 1029.8 hPa | 0 mm | - | 75 W/m² | - |
| 1787840271 | 23.89° C | 92% | 1029.8 hPa | 0 mm | - | 86 W/m² | - |
| 1787839970 | 23.89° C | 91% | 1029.8 hPa | 0 mm | - | 111 W/m² | - |
| 1787839666 | 23.89° C | 90% | 1029.8 hPa | 0 mm | - | 115 W/m² | - |
| 1787839366 | 23.89° C | 90% | 1029.8 hPa | 0 mm | - | 171 W/m² | - |
| 1787839060 | 23.89° C | 90% | 1029.8 hPa | 0 mm | - | 186 W/m² | - |
| 1787838759 | 23.89° C | 90% | 1029.8 hPa | 0 mm | - | 200 W/m² | - |
| 1787838458 | 23.89° C | 90% | 1029.8 hPa | 0 mm | - | 177 W/m² | - |
| 1787838153 | 23.89° C | 90% | 1029.8 hPa | 0 mm | - | 182 W/m² | - |
| 1787837847 | 23.89° C | 90% | 1029.8 hPa | 0 mm | - | 184 W/m² | - |
| 1787837542 | 23.89° C | 91% | 1029.8 hPa | 0 mm | - | 202 W/m² | - |
| 1787837241 | 23.89° C | 92% | 1029.8 hPa | 0 mm | - | 200 W/m² | - |
| 1787836941 | 23.33° C | 93% | 1029.8 hPa | 0 mm | - | 201 W/m² | - |
* Rain latest hour (hover to see other rain measurements)
** Current wind speed in m/s (hover to see current wind gust speed)